Time,TemperatureF,DewpointF,PressureIn,WindDirection,WindDirectionDegrees,WindSpeedMPH,WindSpeedGustMPH,Humidity,HourlyPrecipIn,Conditions,Clouds,dailyrainin,SoftwareType,DateUTC
2013-09-19 00:02:00,46.9,27.8,30.05,SSW,208,0.0,0.0,47,0.00,,---,0.00,VWS V14.01,2013-09-19 06:02:00,
2013-09-19 00:07:00,46.4,26.2,30.05,SSW,208,0.0,0.0,45,0.00,,---,0.00,VWS V14.01,2013-09-19 06:07:00,
2013-09-19 00:12:00,46.2,26.6,30.05,SSW,208,0.0,0.0,46,0.00,,---,0.00,VWS V14.01,2013-09-19 06:12:00,
2013-09-19 00:17:00,46.0,26.4,30.05,SSW,208,0.0,0.0,46,0.00,,---,0.00,VWS V14.01,2013-09-19 06:17:00,
2013-09-19 00:22:00,45.9,26.8,30.05,SE,144,0.0,5.4,47,0.00,,---,0.00,VWS V14.01,2013-09-19 06:22:00,
2013-09-19 00:27:00,45.9,27.3,30.05,SE,144,0.0,5.4,48,0.00,,---,0.00,VWS V14.01,2013-09-19 06:27:00,
2013-09-19 00:32:00,45.5,27.5,30.05,SE,144,0.0,0.0,49,0.00,,---,0.00,VWS V14.01,2013-09-19 06:32:00,
2013-09-19 00:37:00,45.9,27.8,30.05,SE,129,0.0,0.0,49,0.00,,---,0.00,VWS V14.01,2013-09-19 06:37:00,
2013-09-19 00:42:00,46.2,28.1,30.05,SE,129,0.0,0.0,49,0.00,,---,0.00,VWS V14.01,2013-09-19 06:42:00,
2013-09-19 00:47:00,46.4,27.8,30.05,SE,129,0.0,0.0,48,0.00,,---,0.00,VWS V14.01,2013-09-19 06:47:00,
2013-09-19 00:52:00,46.6,28.0,30.05,SE,129,0.0,0.0,48,0.00,,---,0.00,VWS V14.01,2013-09-19 06:52:00,
2013-09-19 00:57:00,46.6,28.5,30.05,SE,129,0.0,0.0,49,0.00,,---,0.00,VWS V14.01,2013-09-19 06:57:00,
2013-09-19 01:02:00,46.4,28.3,30.05,SE,129,0.0,0.0,49,0.00,,---,0.00,VWS V14.01,2013-09-19 07:02:00,
2013-09-19 01:07:00,46.6,28.5,30.05,SE,129,0.0,0.0,49,0.00,,---,0.00,VWS V14.01,2013-09-19 07:07:00,
2013-09-19 01:12:00,46.6,28.0,30.05,SE,129,0.0,0.0,48,0.00,,---,0.00,VWS V14.01,2013-09-19 07:12:00,
2013-09-19 01:17:00,46.8,28.6,30.05,SE,129,0.0,0.0,49,0.00,,---,0.00,VWS V14.01,2013-09-19 07:17:00,
2013-09-19 01:22:00,47.1,28.5,30.05,SE,129,0.0,0.0,48,0.00,,---,0.00,VWS V14.01,2013-09-19 07:22:00,
2013-09-19 01:27:00,47.5,28.8,30.05,SE,129,0.0,0.0,48,0.00,,---,0.00,VWS V14.01,2013-09-19 07:27:00,
2013-09-19 01:32:00,47.5,28.8,30.05,SE,128,0.0,0.0,48,0.00,,---,0.00,VWS V14.01,2013-09-19 07:32:00,
2013-09-19 01:37:00,47.5,28.8,30.08,SE,128,0.0,0.0,48,0.00,,---,0.00,VWS V14.01,2013-09-19 07:37:00,
2013-09-19 01:42:00,47.7,29.0,30.08,SE,128,0.0,0.0,48,0.00,,---,0.00,VWS V14.01,2013-09-19 07:42:00,
2013-09-19 01:47:00,47.8,28.6,30.08,ESE,114,0.0,0.0,47,0.00,,---,0.00,VWS V14.01,2013-09-19 07:47:00,
2013-09-19 01:52:00,48.0,28.2,30.08,West,270,0.0,3.1,46,0.00,,---,0.00,VWS V14.01,2013-09-19 07:52:00,
2013-09-19 01:57:00,48.6,28.7,30.08,South,191,0.0,3.1,46,0.00,,---,0.00,VWS V14.01,2013-09-19 07:57:00,
2013-09-19 02:02:00,48.7,28.4,30.08,SE,131,0.0,0.0,45,0.00,,---,0.00,VWS V14.01,2013-09-19 08:02:00,
2013-09-19 02:07:00,48.6,28.2,30.08,SE,131,0.0,0.0,45,0.00,,---,0.00,VWS V14.01,2013-09-19 08:07:00,
2013-09-19 02:12:00,48.4,28.0,30.08,SE,131,0.0,0.0,45,0.00,,---,0.00,VWS V14.01,2013-09-19 08:12:00,
2013-09-19 02:17:00,48.4,28.0,30.08,SE,131,0.0,0.0,45,0.00,,---,0.00,VWS V14.01,2013-09-19 08:17:00,
2013-09-19 02:22:00,48.2,27.3,30.08,SE,131,0.0,0.0,44,0.00,,---,0.00,VWS V14.01,2013-09-19 08:22:00,
2013-09-19 02:27:00,48.0,27.7,30.08,SE,131,0.0,0.0,45,0.00,,---,0.00,VWS V14.01,2013-09-19 08:27:00,
2013-09-19 02:32:00,48.0,27.7,30.08,South,188,3.1,3.6,45,0.00,,---,0.00,VWS V14.01,2013-09-19 08:32:00,
2013-09-19 02:37:00,48.0,27.7,30.08,South,188,0.0,3.6,45,0.00,,---,0.00,VWS V14.01,2013-09-19 08:37:00,
2013-09-19 02:42:00,48.0,27.7,30.08,SSE,153,0.0,3.6,45,0.00,,---,0.00,VWS V14.01,2013-09-19 08:42:00,
2013-09-19 02:47:00,48.2,27.3,30.08,SSE,167,0.0,2.7,44,0.00,,---,0.00,VWS V14.01,2013-09-19 08:47:00,
2013-09-19 02:52:00,48.0,27.7,30.08,SSE,167,0.0,2.7,45,0.00,,---,0.00,VWS V14.01,2013-09-19 08:52:00,
2013-09-19 02:57:00,47.7,27.4,30.08,SSE,167,0.0,2.7,45,0.00,,---,0.00,VWS V14.01,2013-09-19 08:57:00,
2013-09-19 03:02:00,47.5,27.2,30.08,SSE,167,0.0,0.0,45,0.00,,---,0.00,VWS V14.01,2013-09-19 09:02:00,
2013-09-19 03:07:00,47.5,27.2,30.08,SSE,167,0.0,0.0,45,0.00,,---,0.00,VWS V14.01,2013-09-19 09:07:00,
2013-09-19 03:12:00,47.3,27.0,30.08,SSE,167,0.0,0.0,45,0.00,,---,0.00,VWS V14.01,2013-09-19 09:12:00,
2013-09-19 03:17:00,47.3,27.0,30.08,SSE,167,0.0,0.0,45,0.00,,---,0.00,VWS V14.01,2013-09-19 09:17:00,
2013-09-19 03:22:00,46.9,27.3,30.08,SSE,167,0.0,0.0,46,0.00,,---,0.00,VWS V14.01,2013-09-19 09:22:00,
2013-09-19 03:27:00,46.4,26.8,30.08,SSE,167,0.0,0.0,46,0.00,,---,0.00,VWS V14.01,2013-09-19 09:27:00,
2013-09-19 03:32:00,46.2,27.1,30.08,SSE,167,0.0,0.0,47,0.00,,---,0.00,VWS V14.01,2013-09-19 09:32:00,
2013-09-19 03:37:00,45.9,26.8,30.08,SSE,167,0.0,0.0,47,0.00,,---,0.00,VWS V14.01,2013-09-19 09:37:00,
2013-09-19 03:42:00,45.1,26.1,30.08,SSE,167,0.0,0.0,47,0.00,,---,0.00,VWS V14.01,2013-09-19 09:42:00,
2013-09-19 03:47:00,45.3,26.3,30.08,South,181,0.0,0.0,47,0.00,,---,0.00,VWS V14.01,2013-09-19 09:47:00,
2013-09-19 03:52:00,45.7,26.6,30.08,South,182,3.1,5.4,47,0.00,,---,0.00,VWS V14.01,2013-09-19 09:52:00,
2013-09-19 03:57:00,46.2,27.1,30.08,South,178,3.6,5.4,47,0.00,,---,0.00,VWS V14.01,2013-09-19 09:57:00,
2013-09-19 04:02:00,46.4,26.8,30.08,SSE,166,0.0,4.0,46,0.00,,---,0.00,VWS V14.01,2013-09-19 10:02:00,
2013-09-19 04:07:00,46.4,26.8,30.08,SSW,202,2.7,4.0,46,0.00,,---,0.00,VWS V14.01,2013-09-19 10:07:00,
2013-09-19 04:12:00,46.4,26.2,30.08,South,184,0.0,4.0,45,0.00,,---,0.00,VWS V14.01,2013-09-19 10:12:00,
2013-09-19 04:17:00,45.3,25.2,30.08,SE,142,2.2,2.7,45,0.00,,---,0.00,VWS V14.01,2013-09-19 10:17:00,
2013-09-19 04:22:00,45.1,25.6,30.08,SE,142,0.0,2.7,46,0.00,,---,0.00,VWS V14.01,2013-09-19 10:22:00,
2013-09-19 04:27:00,44.6,25.1,30.08,SE,142,0.0,2.7,46,0.00,,---,0.00,VWS V14.01,2013-09-19 10:27:00,
2013-09-19 04:32:00,43.5,24.1,30.08,SE,142,0.0,0.0,46,0.00,,---,0.00,VWS V14.01,2013-09-19 10:32:00,
2013-09-19 04:37:00,42.8,23.5,30.08,SE,142,0.0,0.0,46,0.00,,---,0.00,VWS V14.01,2013-09-19 10:37:00,
2013-09-19 04:42:00,42.1,23.8,30.08,SSW,211,0.0,0.0,48,0.00,,---,0.00,VWS V14.01,2013-09-19 10:42:00,
2013-09-19 04:47:00,41.7,23.5,30.08,SSW,211,0.0,0.0,48,0.00,,---,0.00,VWS V14.01,2013-09-19 10:47:00,
2013-09-19 04:52:00,41.2,23.5,30.08,SSW,211,0.0,0.0,49,0.00,,---,0.00,VWS V14.01,2013-09-19 10:52:00,
2013-09-19 04:57:00,41.0,23.3,30.08,SSW,211,0.0,0.0,49,0.00,,---,0.00,VWS V14.01,2013-09-19 10:57:00,
2013-09-19 05:02:00,40.3,23.1,30.08,SSW,211,0.0,0.0,50,0.00,,---,0.00,VWS V14.01,2013-09-19 11:02:00,
2013-09-19 05:07:00,39.9,22.8,30.08,SSW,211,0.0,0.0,50,0.00,,---,0.00,VWS V14.01,2013-09-19 11:07:00,
2013-09-19 05:12:00,39.7,22.6,30.08,SSW,211,0.0,0.0,50,0.00,,---,0.00,VWS V14.01,2013-09-19 11:12:00,
2013-09-19 05:17:00,39.4,22.8,30.08,SSW,211,0.0,0.0,51,0.00,,---,0.00,VWS V14.01,2013-09-19 11:17:00,
2013-09-19 05:22:00,39.2,23.1,30.08,SSW,211,0.0,0.0,52,0.00,,---,0.00,VWS V14.01,2013-09-19 11:22:00,
2013-09-19 05:27:00,39.0,22.9,30.08,SSW,211,0.0,0.0,52,0.00,,---,0.00,VWS V14.01,2013-09-19 11:27:00,
2013-09-19 05:32:00,38.8,23.2,30.08,SSW,211,0.0,0.0,53,0.00,,---,0.00,VWS V14.01,2013-09-19 11:32:00,
2013-09-19 05:37:00,38.7,23.0,30.08,SSW,211,0.0,0.0,53,0.00,,---,0.00,VWS V14.01,2013-09-19 11:37:00,
2013-09-19 05:42:00,38.7,23.5,30.08,SSW,211,0.0,0.0,54,0.00,,---,0.00,VWS V14.01,2013-09-19 11:42:00,
2013-09-19 05:47:00,38.7,23.5,30.08,SSW,211,0.0,0.0,54,0.00,,---,0.00,VWS V14.01,2013-09-19 11:47:00,
2013-09-19 05:52:00,38.5,23.3,30.08,SSW,211,0.0,0.0,54,0.00,,---,0.00,VWS V14.01,2013-09-19 11:52:00,
2013-09-19 05:57:00,38.5,23.3,30.08,SSW,211,0.0,0.0,54,0.00,,---,0.00,VWS V14.01,2013-09-19 11:57:00,
2013-09-19 06:02:00,38.1,23.0,30.08,SSW,211,0.0,0.0,54,0.00,,---,0.00,VWS V14.01,2013-09-19 12:02:00,
2013-09-19 06:07:00,37.9,22.8,30.11,SSW,211,0.0,0.0,54,0.00,,---,0.00,VWS V14.01,2013-09-19 12:07:00,
2013-09-19 06:12:00,37.9,23.2,30.11,SSW,211,0.0,0.0,55,0.00,,---,0.00,VWS V14.01,2013-09-19 12:12:00,
2013-09-19 06:17:00,37.9,23.2,30.11,SSW,211,0.0,0.0,55,0.00,,---,0.00,VWS V14.01,2013-09-19 12:17:00,
2013-09-19 06:22:00,38.3,24.0,30.11,SSW,211,2.2,4.0,56,0.00,,---,0.00,VWS V14.01,2013-09-19 12:22:00,
2013-09-19 06:27:00,39.0,25.1,30.11,South,187,0.0,4.0,57,0.00,,---,0.00,VWS V14.01,2013-09-19 12:27:00,
2013-09-19 06:32:00,39.4,25.0,30.11,SSW,211,0.0,0.0,56,0.00,,---,0.00,VWS V14.01,2013-09-19 12:32:00,
2013-09-19 06:37:00,39.2,24.8,30.11,SW,234,0.0,0.0,56,0.00,,---,0.00,VWS V14.01,2013-09-19 12:37:00,
2013-09-19 06:42:00,39.2,24.8,30.11,SW,234,0.0,0.0,56,0.00,,---,0.00,VWS V14.01,2013-09-19 12:42:00,
2013-09-19 06:47:00,38.8,24.5,30.11,SW,234,0.0,0.0,56,0.00,,---,0.00,VWS V14.01,2013-09-19 12:47:00,
2013-09-19 06:52:00,38.5,24.2,30.11,SW,234,0.0,0.0,56,0.00,,---,0.00,VWS V14.01,2013-09-19 12:52:00,
2013-09-19 06:57:00,38.3,24.4,30.11,SW,234,0.0,0.0,57,0.00,,---,0.00,VWS V14.01,2013-09-19 12:57:00,
2013-09-19 07:02:00,37.9,23.7,30.11,SW,234,0.0,0.0,56,0.00,,---,0.00,VWS V14.01,2013-09-19 13:02:00,
2013-09-19 07:07:00,37.6,23.7,30.11,SW,234,0.0,0.0,57,0.00,,---,0.00,VWS V14.01,2013-09-19 13:07:00,
2013-09-19 07:12:00,37.6,23.7,30.11,SW,234,0.0,0.0,57,0.00,,---,0.00,VWS V14.01,2013-09-19 13:12:00,
2013-09-19 07:17:00,37.6,23.7,30.11,SW,234,0.0,0.0,57,0.00,,---,0.00,VWS V14.01,2013-09-19 13:17:00,
2013-09-19 07:22:00,37.9,24.1,30.11,SW,234,0.0,0.0,57,0.00,,---,0.00,VWS V14.01,2013-09-19 13:22:00,
2013-09-19 07:27:00,37.8,23.9,30.11,SW,234,0.0,0.0,57,0.00,,---,0.00,VWS V14.01,2013-09-19 13:27:00,
2013-09-19 07:32:00,37.8,23.9,30.11,SW,234,0.0,0.0,57,0.00,,---,0.00,VWS V14.01,2013-09-19 13:32:00,
2013-09-19 07:37:00,37.8,24.3,30.11,SW,234,0.0,0.0,58,0.00,,---,0.00,VWS V14.01,2013-09-19 13:37:00,
2013-09-19 07:42:00,37.8,24.3,30.11,SW,234,0.0,0.0,58,0.00,,---,0.00,VWS V14.01,2013-09-19 13:42:00,
2013-09-19 07:47:00,37.9,24.5,30.11,SW,234,0.0,0.0,58,0.00,,---,0.00,VWS V14.01,2013-09-19 13:47:00,
2013-09-19 07:52:00,38.3,25.2,30.11,SW,234,0.0,0.0,59,0.00,,---,0.00,VWS V14.01,2013-09-19 13:52:00,
2013-09-19 07:57:00,39.0,25.9,30.11,SW,234,0.0,0.0,59,0.00,,---,0.00,VWS V14.01,2013-09-19 13:57:00,
2013-09-19 08:02:00,40.5,27.7,30.11,SW,227,0.0,0.0,60,0.00,,---,0.00,VWS V14.01,2013-09-19 14:02:00,
2013-09-19 08:07:00,42.1,29.2,30.11,SW,227,0.0,0.0,60,0.00,,---,0.00,VWS V14.01,2013-09-19 14:07:00,
2013-09-19 08:12:00,43.7,30.3,30.11,SW,227,0.0,0.0,59,0.00,,---,0.00,VWS V14.01,2013-09-19 14:12:00,
2013-09-19 08:17:00,45.1,30.8,30.11,South,183,0.0,3.1,57,0.00,,---,0.00,VWS V14.01,2013-09-19 14:17:00,
2013-09-19 08:22:00,46.2,31.8,30.14,SSW,198,0.0,3.1,57,0.00,,---,0.00,VWS V14.01,2013-09-19 14:22:00,
2013-09-19 08:27:00,46.9,30.7,30.14,SSE,160,2.7,4.0,53,0.00,,---,0.00,VWS V14.01,2013-09-19 14:27:00,
2013-09-19 08:32:00,47.7,31.4,30.14,SSE,159,2.7,3.6,53,0.00,,---,0.00,VWS V14.01,2013-09-19 14:32:00,
2013-09-19 08:37:00,48.7,31.4,30.14,SSW,201,3.6,3.6,51,0.00,,---,0.00,VWS V14.01,2013-09-19 14:37:00,
2013-09-19 08:42:00,49.6,31.3,30.14,SSE,155,3.1,4.9,49,0.00,,---,0.00,VWS V14.01,2013-09-19 14:42:00,
2013-09-19 08:47:00,50.2,31.3,30.14,SE,139,3.1,3.1,48,0.00,,---,0.00,VWS V14.01,2013-09-19 14:47:00,
2013-09-19 08:52:00,50.7,30.7,30.14,SE,134,2.2,4.0,46,0.00,,---,0.00,VWS V14.01,2013-09-19 14:52:00,
2013-09-19 08:57:00,51.3,30.7,30.14,SSE,155,2.7,4.0,45,0.00,,---,0.00,VWS V14.01,2013-09-19 14:57:00,
2013-09-19 09:02:00,52.0,30.2,30.14,ESE,123,3.6,3.6,43,0.00,,---,0.00,VWS V14.01,2013-09-19 15:02:00,
2013-09-19 09:07:00,52.7,30.3,30.14,SSE,163,4.0,4.0,42,0.00,,---,0.00,VWS V14.01,2013-09-19 15:07:00,
2013-09-19 09:12:00,53.4,29.1,30.14,SSE,152,2.2,4.9,39,0.00,,---,0.00,VWS V14.01,2013-09-19 15:12:00,
2013-09-19 09:17:00,54.5,29.4,30.14,SSE,160,2.2,4.5,38,0.00,,---,0.00,VWS V14.01,2013-09-19 15:17:00,
2013-09-19 09:22:00,54.9,28.4,30.14,SSE,159,3.1,6.3,36,0.00,,---,0.00,VWS V14.01,2013-09-19 15:22:00,
2013-09-19 09:27:00,54.9,28.4,30.14,SSE,150,3.1,6.3,36,0.00,,---,0.00,VWS V14.01,2013-09-19 15:27:00,
2013-09-19 09:32:00,55.2,28.1,30.14,SE,145,4.0,4.5,35,0.00,,---,0.00,VWS V14.01,2013-09-19 15:32:00,
2013-09-19 09:37:00,55.4,27.5,30.14,SE,137,4.0,6.3,34,0.00,,---,0.00,VWS V14.01,2013-09-19 15:37:00,
2013-09-19 09:42:00,55.9,28.0,30.14,ESE,118,4.0,6.3,34,0.00,,---,0.00,VWS V14.01,2013-09-19 15:42:00,
2013-09-19 09:47:00,56.5,27.8,30.14,SE,138,4.0,5.8,33,0.00,,---,0.00,VWS V14.01,2013-09-19 15:47:00,
2013-09-19 09:52:00,56.8,27.3,30.14,SE,136,5.4,6.3,32,0.00,,---,0.00,VWS V14.01,2013-09-19 15:52:00,
2013-09-19 09:57:00,57.4,27.0,30.14,East,97,5.8,6.3,31,0.00,,---,0.00,VWS V14.01,2013-09-19 15:57:00,
2013-09-19 10:02:00,58.1,26.9,30.14,East,96,3.1,5.4,30,0.00,,---,0.00,VWS V14.01,2013-09-19 16:02:00,
2013-09-19 10:07:00,58.8,26.6,30.14,SSE,150,4.9,5.8,29,0.00,,---,0.00,VWS V14.01,2013-09-19 16:07:00,
2013-09-19 10:12:00,59.7,27.4,30.14,SSE,164,4.0,5.8,29,0.00,,---,0.00,VWS V14.01,2013-09-19 16:12:00,
2013-09-19 10:17:00,60.4,27.2,30.14,SE,126,3.1,4.0,28,0.00,,---,0.00,VWS V14.01,2013-09-19 16:17:00,
2013-09-19 10:22:00,61.0,26.8,30.11,East,100,3.6,5.4,27,0.00,,---,0.00,VWS V14.01,2013-09-19 16:22:00,
2013-09-19 10:27:00,61.9,27.6,30.11,SE,134,3.6,5.8,27,0.00,,---,0.00,VWS V14.01,2013-09-19 16:27:00,
2013-09-19 10:32:00,62.6,27.3,30.11,NE,53,2.7,4.0,26,0.00,,---,0.00,VWS V14.01,2013-09-19 16:32:00,
2013-09-19 10:37:00,63.5,28.0,30.11,ENE,71,3.1,4.9,26,0.00,,---,0.00,VWS V14.01,2013-09-19 16:37:00,
2013-09-19 10:42:00,63.9,27.4,30.11,SE,136,2.7,6.3,25,0.00,,---,0.00,VWS V14.01,2013-09-19 16:42:00,
2013-09-19 10:47:00,63.9,26.4,30.11,SSE,150,4.0,6.3,24,0.00,,---,0.00,VWS V14.01,2013-09-19 16:47:00,
2013-09-19 10:52:00,64.2,26.7,30.11,ENE,78,3.1,6.3,24,0.00,,---,0.00,VWS V14.01,2013-09-19 16:52:00,
2013-09-19 10:57:00,64.2,26.7,30.11,SE,138,3.6,6.3,24,0.00,,---,0.00,VWS V14.01,2013-09-19 16:57:00,
2013-09-19 11:02:00,64.6,26.0,30.11,ENE,59,3.6,6.3,23,0.00,,---,0.00,VWS V14.01,2013-09-19 17:02:00,
2013-09-19 11:07:00,65.1,26.4,30.11,East,100,4.9,6.3,23,0.00,,---,0.00,VWS V14.01,2013-09-19 17:07:00,
2013-09-19 11:12:00,64.8,26.1,30.11,SE,144,4.0,6.3,23,0.00,,---,0.00,VWS V14.01,2013-09-19 17:12:00,
2013-09-19 11:17:00,65.1,26.4,30.11,SE,133,2.2,5.8,23,0.00,,---,0.00,VWS V14.01,2013-09-19 17:17:00,
2013-09-19 11:22:00,65.8,27.0,30.11,ESE,116,3.1,5.8,23,0.00,,---,0.00,VWS V14.01,2013-09-19 17:22:00,
2013-09-19 11:27:00,65.8,27.0,30.11,ESE,121,2.2,6.3,23,0.00,,---,0.00,VWS V14.01,2013-09-19 17:27:00,
2013-09-19 11:32:00,66.2,26.3,30.11,ENE,78,4.0,6.3,22,0.00,,---,0.00,VWS V14.01,2013-09-19 17:32:00,
2013-09-19 11:37:00,66.6,26.6,30.11,ENE,75,4.0,6.3,22,0.00,,---,0.00,VWS V14.01,2013-09-19 17:37:00,
2013-09-19 11:42:00,67.5,27.3,30.11,ENE,61,4.9,6.3,22,0.00,,---,0.00,VWS V14.01,2013-09-19 17:42:00,
2013-09-19 11:47:00,67.6,25.2,30.11,ENE,67,5.8,8.3,20,0.00,,---,0.00,VWS V14.01,2013-09-19 17:47:00,
2013-09-19 11:52:00,67.5,25.0,30.11,ENE,78,3.6,8.3,20,0.00,,---,0.00,VWS V14.01,2013-09-19 17:52:00,
2013-09-19 11:57:00,67.5,25.0,30.11,East,83,3.6,8.3,20,0.00,,---,0.00,VWS V14.01,2013-09-19 17:57:00,
2013-09-19 12:02:00,68.5,25.9,30.11,ENE,73,0.0,2.2,20,0.00,,---,0.00,VWS V14.01,2013-09-19 18:02:00,
2013-09-19 12:07:00,69.1,26.4,30.11,ESE,106,2.7,5.4,20,0.00,,---,0.00,VWS V14.01,2013-09-19 18:07:00,
2013-09-19 12:12:00,69.3,26.5,30.11,ENE,78,6.3,6.3,20,0.00,,---,0.00,VWS V14.01,2013-09-19 18:12:00,
2013-09-19 12:17:00,68.7,26.1,30.11,NE,52,0.0,3.1,20,0.00,,---,0.00,VWS V14.01,2013-09-19 18:17:00,
2013-09-19 12:22:00,68.7,26.1,30.11,East,93,5.4,5.8,20,0.00,,---,0.00,VWS V14.01,2013-09-19 18:22:00,
2013-09-19 12:27:00,69.1,26.4,30.11,ESE,117,2.7,5.8,20,0.00,,---,0.00,VWS V14.01,2013-09-19 18:27:00,
2013-09-19 12:32:00,69.4,26.7,30.11,ENE,73,3.6,6.3,20,0.00,,---,0.00,VWS V14.01,2013-09-19 18:32:00,
2013-09-19 12:37:00,69.3,26.5,30.08,East,101,5.4,6.3,20,0.00,,---,0.00,VWS V14.01,2013-09-19 18:37:00,
2013-09-19 12:42:00,69.1,22.5,30.08,ESE,106,4.0,8.1,17,0.00,,---,0.00,VWS V14.01,2013-09-19 18:42:00,
2013-09-19 12:47:00,68.7,22.2,30.08,NE,49,5.4,5.4,17,0.00,,---,0.00,VWS V14.01,2013-09-19 18:47:00,
2013-09-19 12:52:00,69.4,22.8,30.08,East,81,5.8,6.3,17,0.00,,---,0.00,VWS V14.01,2013-09-19 18:52:00,
2013-09-19 12:57:00,69.6,22.9,30.08,NE,54,3.1,6.3,17,0.00,,---,0.00,VWS V14.01,2013-09-19 18:57:00,
2013-09-19 13:02:00,70.0,23.2,30.08,ENE,59,4.0,5.8,17,0.00,,---,0.00,VWS V14.01,2013-09-19 19:02:00,
2013-09-19 13:07:00,70.7,23.8,30.08,ENE,58,2.7,6.3,17,0.00,,---,0.00,VWS V14.01,2013-09-19 19:07:00,
2013-09-19 13:12:00,70.3,23.5,30.08,North,0,0.0,6.3,17,0.00,,---,0.00,VWS V14.01,2013-09-19 19:12:00,
2013-09-19 13:17:00,69.8,23.1,30.08,South,184,4.0,5.4,17,0.00,,---,0.00,VWS V14.01,2013-09-19 19:17:00,
2013-09-19 13:22:00,70.3,23.5,30.08,East,84,2.7,5.4,17,0.00,,---,0.00,VWS V14.01,2013-09-19 19:22:00,
2013-09-19 13:27:00,71.1,24.1,30.08,ENE,64,0.0,5.4,17,0.00,,---,0.00,VWS V14.01,2013-09-19 19:27:00,
2013-09-19 13:32:00,71.4,24.4,30.08,SE,133,0.0,0.0,17,0.00,,---,0.00,VWS V14.01,2013-09-19 19:32:00,
2013-09-19 13:36:00,72.0,23.4,30.08,NNW,345,0.0,4.0,16,0.00,,---,0.00,VWS V14.01,2013-09-19 19:36:00,
2013-09-19 13:41:00,71.6,23.1,30.08,East,87,5.8,5.8,16,0.00,,---,0.00,VWS V14.01,2013-09-19 19:41:00,
2013-09-19 13:46:00,71.2,24.2,30.08,ENE,72,2.2,4.0,17,0.00,,---,0.00,VWS V14.01,2013-09-19 19:46:00,
2013-09-19 13:51:00,72.0,23.4,30.08,ENE,72,3.1,4.9,16,0.00,,---,0.00,VWS V14.01,2013-09-19 19:51:00,
2013-09-19 13:56:00,70.7,23.8,30.08,West,271,0.0,4.9,17,0.00,,---,0.00,VWS V14.01,2013-09-19 19:56:00,
2013-09-19 14:01:00,71.4,24.4,30.08,ESE,117,2.2,4.0,17,0.00,,---,0.00,VWS V14.01,2013-09-19 20:01:00,
2013-09-19 14:06:00,72.9,24.1,30.08,North,6,3.6,4.0,16,0.00,,---,0.00,VWS V14.01,2013-09-19 20:06:00,
2013-09-19 14:11:00,72.5,23.8,30.08,West,274,2.7,4.5,16,0.00,,---,0.00,VWS V14.01,2013-09-19 20:11:00,
2013-09-19 14:16:00,71.6,23.1,30.08,North,357,0.0,3.6,16,0.00,,---,0.00,VWS V14.01,2013-09-19 20:16:00,
2013-09-19 14:21:00,72.1,23.5,30.05,East,86,2.7,4.5,16,0.00,,---,0.00,VWS V14.01,2013-09-19 20:21:00,
2013-09-19 14:26:00,73.2,24.4,30.05,SSE,158,0.0,5.8,16,0.00,,---,0.00,VWS V14.01,2013-09-19 20:26:00,
2013-09-19 14:31:00,74.1,25.1,30.05,ESE,102,5.4,8.3,16,0.00,,---,0.00,VWS V14.01,2013-09-19 20:31:00,
2013-09-19 14:36:00,73.9,25.0,30.05,East,85,4.9,8.3,16,0.00,,---,0.00,VWS V14.01,2013-09-19 20:36:00,
2013-09-19 14:41:00,73.8,24.8,30.05,ESE,108,2.7,8.3,16,0.00,,---,0.00,VWS V14.01,2013-09-19 20:41:00,
2013-09-19 14:46:00,73.2,24.4,30.05,North,357,0.0,4.0,16,0.00,,---,0.00,VWS V14.01,2013-09-19 20:46:00,
2013-09-19 14:51:00,73.6,24.7,30.05,NE,55,3.6,8.1,16,0.00,,---,0.00,VWS V14.01,2013-09-19 20:51:00,
2013-09-19 14:56:00,73.8,24.8,30.05,NE,46,0.0,8.1,16,0.00,,---,0.00,VWS V14.01,2013-09-19 20:56:00,
2013-09-19 15:01:00,73.0,24.2,30.05,North,357,2.2,3.1,16,0.00,,---,0.00,VWS V14.01,2013-09-19 21:01:00,
2013-09-19 15:06:00,71.8,23.2,30.05,NW,326,0.0,3.1,16,0.00,,---,0.00,VWS V14.01,2013-09-19 21:06:00,
2013-09-19 15:11:00,71.6,23.1,30.05,NNW,343,0.0,3.1,16,0.00,,---,0.00,VWS V14.01,2013-09-19 21:11:00,
2013-09-19 15:16:00,70.9,23.9,30.05,WNW,288,0.0,3.6,17,0.00,,---,0.00,VWS V14.01,2013-09-19 21:16:00,
2013-09-19 15:21:00,72.1,23.5,30.05,WSW,255,0.0,3.6,16,0.00,,---,0.00,VWS V14.01,2013-09-19 21:21:00,
2013-09-19 15:26:00,74.1,25.1,30.05,North,4,0.0,4.9,16,0.00,,---,0.00,VWS V14.01,2013-09-19 21:26:00,
2013-09-19 15:31:00,73.8,24.8,30.05,NNE,26,0.0,0.0,16,0.00,,---,0.00,VWS V14.01,2013-09-19 21:31:00,
2013-09-19 15:36:00,73.0,24.2,30.05,NNW,337,2.7,2.7,16,0.00,,---,0.00,VWS V14.01,2013-09-19 21:36:00,
2013-09-19 15:42:00,72.7,23.9,30.05,North,357,0.0,4.0,16,0.00,,---,0.00,VWS V14.01,2013-09-19 21:42:00,
2013-09-19 15:47:00,72.7,23.9,30.05,NNE,13,0.0,2.7,16,0.00,,---,0.00,VWS V14.01,2013-09-19 21:47:00,
2013-09-19 15:52:00,73.0,24.2,30.05,NNE,12,0.0,3.1,16,0.00,,---,0.00,VWS V14.01,2013-09-19 21:52:00,
2013-09-19 15:57:00,72.5,23.8,30.05,North,357,0.0,3.6,16,0.00,,---,0.00,VWS V14.01,2013-09-19 21:57:00,
2013-09-19 16:02:00,73.8,24.8,30.05,East,84,0.0,3.6,16,0.00,,---,0.00,VWS V14.01,2013-09-19 22:02:00,
2013-09-19 16:07:00,75.4,24.6,30.02,South,185,0.0,3.6,15,0.00,,---,0.00,VWS V14.01,2013-09-19 22:07:00,
2013-09-19 16:12:00,75.0,25.8,30.02,NE,35,0.0,3.6,16,0.00,,---,0.00,VWS V14.01,2013-09-19 22:12:00,
2013-09-19 16:17:00,73.0,24.2,30.02,NNW,345,0.0,0.0,16,0.00,,---,0.00,VWS V14.01,2013-09-19 22:17:00,
2013-09-19 16:22:00,73.4,24.5,30.02,NE,46,0.0,3.1,16,0.00,,---,0.00,VWS V14.01,2013-09-19 22:22:00,
2013-09-19 16:27:00,72.3,23.6,30.02,SW,235,0.0,3.1,16,0.00,,---,0.00,VWS V14.01,2013-09-19 22:27:00,
2013-09-19 16:32:00,72.1,23.5,30.02,NW,313,2.7,3.6,16,0.00,,---,0.00,VWS V14.01,2013-09-19 22:32:00,
2013-09-19 16:37:00,72.9,24.1,30.02,East,80,0.0,3.6,16,0.00,,---,0.00,VWS V14.01,2013-09-19 22:37:00,
2013-09-19 16:42:00,73.8,24.8,30.02,ESE,113,0.0,3.6,16,0.00,,---,0.00,VWS V14.01,2013-09-19 22:42:00,
2013-09-19 16:47:00,73.8,24.8,30.02,NNE,27,0.0,0.0,16,0.00,,---,0.00,VWS V14.01,2013-09-19 22:47:00,
2013-09-19 16:52:00,74.1,25.1,30.02,East,97,0.0,3.6,16,0.00,,---,0.00,VWS V14.01,2013-09-19 22:52:00,
2013-09-19 16:57:00,74.3,25.2,30.02,East,89,0.0,3.6,16,0.00,,---,0.00,VWS V14.01,2013-09-19 22:57:00,
2013-09-19 17:02:00,74.3,25.2,30.02,NNE,18,0.0,0.0,16,0.00,,---,0.00,VWS V14.01,2013-09-19 23:02:00,
2013-09-19 17:07:00,73.8,24.8,30.02,North,0,0.0,0.0,16,0.00,,---,0.00,VWS V14.01,2013-09-19 23:07:00,
2013-09-19 17:12:00,72.9,24.1,30.02,North,4,0.0,2.7,16,0.00,,---,0.00,VWS V14.01,2013-09-19 23:12:00,
2013-09-19 17:17:00,71.2,24.2,30.02,North,353,0.0,0.0,17,0.00,,---,0.00,VWS V14.01,2013-09-19 23:17:00,
2013-09-19 17:22:00,71.4,24.4,30.02,North,0,0.0,3.6,17,0.00,,---,0.00,VWS V14.01,2013-09-19 23:22:00,
2013-09-19 17:27:00,72.0,23.4,30.02,North,357,0.0,3.6,16,0.00,,---,0.00,VWS V14.01,2013-09-19 23:27:00,
2013-09-19 17:32:00,73.0,24.2,30.02,NE,44,0.0,0.0,16,0.00,,---,0.00,VWS V14.01,2013-09-19 23:32:00,
2013-09-19 17:37:00,72.3,23.6,30.02,North,8,0.0,0.0,16,0.00,,---,0.00,VWS V14.01,2013-09-19 23:37:00,
2013-09-19 17:42:00,71.4,24.4,30.02,North,8,0.0,0.0,17,0.00,,---,0.00,VWS V14.01,2013-09-19 23:42:00,
2013-09-19 17:47:00,70.9,23.9,30.02,NNE,15,0.0,0.0,17,0.00,,---,0.00,VWS V14.01,2013-09-19 23:47:00,
2013-09-19 17:52:00,70.3,23.5,29.99,NNW,335,0.0,0.0,17,0.00,,---,0.00,VWS V14.01,2013-09-19 23:52:00,
2013-09-19 17:57:00,69.3,22.6,29.99,NNW,335,0.0,0.0,17,0.00,,---,0.00,VWS V14.01,2013-09-19 23:57:00,
2013-09-19 18:02:00,68.2,21.7,29.99,NNW,335,0.0,0.0,17,0.00,,---,0.00,VWS V14.01,2013-09-20 00:02:00,
2013-09-19 18:07:00,67.6,21.3,29.99,NW,313,0.0,0.0,17,0.00,,---,0.00,VWS V14.01,2013-09-20 00:07:00,
2013-09-19 18:12:00,67.1,20.9,29.99,West,272,0.0,0.0,17,0.00,,---,0.00,VWS V14.01,2013-09-20 00:12:00,
2013-09-19 18:17:00,66.7,20.6,29.99,WNW,291,0.0,0.0,17,0.00,,---,0.00,VWS V14.01,2013-09-20 00:17:00,
2013-09-19 18:22:00,66.4,20.3,29.99,WNW,291,0.0,0.0,17,0.00,,---,0.00,VWS V14.01,2013-09-20 00:22:00,
2013-09-19 18:27:00,66.0,21.3,29.99,WNW,291,0.0,0.0,18,0.00,,---,0.00,VWS V14.01,2013-09-20 00:27:00,
2013-09-19 18:32:00,65.5,20.9,29.99,WNW,286,0.0,0.0,18,0.00,,---,0.00,VWS V14.01,2013-09-20 00:32:00,
2013-09-19 18:37:00,65.1,20.6,29.99,WNW,286,0.0,0.0,18,0.00,,---,0.00,VWS V14.01,2013-09-20 00:37:00,
2013-09-19 18:42:00,64.9,20.4,29.99,WNW,286,0.0,0.0,18,0.00,,---,0.00,VWS V14.01,2013-09-20 00:42:00,
2013-09-19 18:47:00,64.4,20.0,29.99,West,273,0.0,0.0,18,0.00,,---,0.00,VWS V14.01,2013-09-20 00:47:00,
2013-09-19 18:52:00,63.7,19.4,29.99,West,273,0.0,0.0,18,0.00,,---,0.00,VWS V14.01,2013-09-20 00:52:00,
2013-09-19 18:57:00,63.1,19.0,29.99,West,273,0.0,0.0,18,0.00,,---,0.00,VWS V14.01,2013-09-20 00:57:00,
2013-09-19 19:02:00,62.2,19.5,29.99,West,273,0.0,0.0,19,0.00,,---,0.00,VWS V14.01,2013-09-20 01:02:00,
2013-09-19 19:07:00,61.2,18.6,29.99,WSW,256,0.0,2.7,19,0.00,,---,0.00,VWS V14.01,2013-09-20 01:07:00,
2013-09-19 19:12:00,60.1,17.7,29.99,WSW,257,0.0,2.7,19,0.00,,---,0.00,VWS V14.01,2013-09-20 01:12:00,
2013-09-19 19:17:00,59.2,20.4,29.99,WSW,258,0.0,0.0,22,0.00,,---,0.00,VWS V14.01,2013-09-20 01:17:00,
2013-09-19 19:22:00,58.3,19.6,29.99,WSW,257,0.0,0.0,22,0.00,,---,0.00,VWS V14.01,2013-09-20 01:22:00,
2013-09-19 19:27:00,57.6,21.1,29.99,WSW,256,0.0,0.0,24,0.00,,---,0.00,VWS V14.01,2013-09-20 01:27:00,
2013-09-19 19:32:00,56.8,21.4,29.99,WSW,250,0.0,2.7,25,0.00,,---,0.00,VWS V14.01,2013-09-20 01:32:00,
2013-09-19 19:37:00,56.3,21.9,29.99,SW,225,0.0,3.6,26,0.00,,---,0.00,VWS V14.01,2013-09-20 01:37:00,
2013-09-19 19:42:00,55.6,21.3,29.99,SW,232,0.0,3.6,26,0.00,,---,0.00,VWS V14.01,2013-09-20 01:42:00,
2013-09-19 19:46:00,54.9,22.4,29.99,SSE,159,0.0,3.1,28,0.00,,---,0.00,VWS V14.01,2013-09-20 01:46:00,
2013-09-19 19:51:00,53.6,20.5,29.99,SSE,159,0.0,3.1,27,0.00,,---,0.00,VWS V14.01,2013-09-20 01:51:00,
2013-09-19 19:56:00,52.5,20.4,29.99,SSE,159,0.0,3.1,28,0.00,,---,0.00,VWS V14.01,2013-09-20 01:56:00,
2013-09-19 20:01:00,51.8,19.8,29.99,SSE,162,0.0,0.0,28,0.00,,---,0.00,VWS V14.01,2013-09-20 02:01:00,
2013-09-19 20:06:00,51.4,21.1,29.99,WSW,255,0.0,0.0,30,0.00,,---,0.00,VWS V14.01,2013-09-20 02:06:00,
2013-09-19 20:11:00,51.1,22.3,29.99,WSW,255,0.0,0.0,32,0.00,,---,0.00,VWS V14.01,2013-09-20 02:11:00,
2013-09-19 20:16:00,50.9,23.5,29.99,WSW,255,0.0,0.0,34,0.00,,---,0.00,VWS V14.01,2013-09-20 02:16:00,
2013-09-19 20:21:00,50.9,23.5,29.99,WSW,255,0.0,0.0,34,0.00,,---,0.00,VWS V14.01,2013-09-20 02:21:00,
2013-09-19 20:26:00,50.4,22.4,29.99,West,263,0.0,0.0,33,0.00,,---,0.00,VWS V14.01,2013-09-20 02:26:00,
2013-09-19 20:31:00,50.4,22.4,29.99,WSW,252,0.0,3.6,33,0.00,,---,0.00,VWS V14.01,2013-09-20 02:31:00,
2013-09-19 20:36:00,50.5,22.5,29.99,WSW,256,0.0,4.0,33,0.00,,---,0.00,VWS V14.01,2013-09-20 02:36:00,
2013-09-19 20:41:00,50.5,23.9,29.99,South,170,3.1,4.0,35,0.00,,---,0.00,VWS V14.01,2013-09-20 02:41:00,
2013-09-19 20:46:00,49.5,23.0,29.99,South,171,0.0,0.0,35,0.00,,---,0.00,VWS V14.01,2013-09-20 02:46:00,
2013-09-19 20:51:00,48.6,22.8,29.99,South,171,0.0,0.0,36,0.00,,---,0.00,VWS V14.01,2013-09-20 02:51:00,
2013-09-19 20:56:00,48.0,23.6,29.99,South,186,0.0,3.1,38,0.00,,---,0.00,VWS V14.01,2013-09-20 02:56:00,
2013-09-19 21:01:00,48.0,23.6,29.99,South,186,0.0,0.0,38,0.00,,---,0.00,VWS V14.01,2013-09-20 03:01:00,
2013-09-19 21:06:00,47.7,23.3,29.99,South,186,0.0,0.0,38,0.00,,---,0.00,VWS V14.01,2013-09-20 03:06:00,
2013-09-19 21:11:00,47.3,23.0,29.99,South,186,0.0,0.0,38,0.00,,---,0.00,VWS V14.01,2013-09-20 03:11:00,
2013-09-19 21:16:00,47.1,22.8,29.99,South,186,0.0,0.0,38,0.00,,---,0.00,VWS V14.01,2013-09-20 03:16:00,
2013-09-19 21:21:00,46.8,22.5,30.02,South,189,0.0,0.0,38,0.00,,---,0.00,VWS V14.01,2013-09-20 03:21:00,
2013-09-19 21:26:00,46.6,22.4,30.02,SSW,192,0.0,0.0,38,0.00,,---,0.00,VWS V14.01,2013-09-20 03:26:00,
2013-09-19 21:31:00,46.2,22.0,30.02,SSW,193,0.0,0.0,38,0.00,,---,0.00,VWS V14.01,2013-09-20 03:31:00,
2013-09-19 21:36:00,46.2,22.6,30.02,SSW,193,0.0,0.0,39,0.00,,---,0.00,VWS V14.01,2013-09-20 03:36:00,
2013-09-19 21:41:00,46.4,22.2,30.02,SSW,193,0.0,0.0,38,0.00,,---,0.00,VWS V14.01,2013-09-20 03:41:00,
2013-09-19 21:46:00,46.4,22.2,30.02,SSW,199,0.0,0.0,38,0.00,,---,0.00,VWS V14.01,2013-09-20 03:46:00,
2013-09-19 21:51:00,46.4,22.8,30.02,SSW,202,0.0,0.0,39,0.00,,---,0.00,VWS V14.01,2013-09-20 03:51:00,
2013-09-19 21:56:00,46.2,22.6,30.02,SSW,208,0.0,0.0,39,0.00,,---,0.00,VWS V14.01,2013-09-20 03:56:00,
2013-09-19 22:01:00,46.0,22.5,30.02,SSW,208,0.0,0.0,39,0.00,,---,0.00,VWS V14.01,2013-09-20 04:01:00,
2013-09-19 22:02:00,46.0,22.5,30.02,SSW,208,0.0,0.0,39,0.00,,---,0.00,VWS V14.01,2013-09-20 04:02:00,
2013-09-19 22:07:00,46.0,23.1,30.02,WSW,237,0.0,0.0,40,0.00,,---,0.00,VWS V14.01,2013-09-20 04:07:00,
2013-09-19 22:12:00,45.9,22.3,30.02,WSW,237,0.0,0.0,39,0.00,,---,0.00,VWS V14.01,2013-09-20 04:12:00,
2013-09-19 22:17:00,45.5,22.6,30.02,SSE,167,0.0,0.0,40,0.00,,---,0.00,VWS V14.01,2013-09-20 04:17:00,
2013-09-19 22:22:00,45.3,22.4,29.99,SSE,167,0.0,0.0,40,0.00,,---,0.00,VWS V14.01,2013-09-20 04:22:00,
2013-09-19 22:27:00,45.3,22.4,29.99,SSE,167,0.0,0.0,40,0.00,,---,0.00,VWS V14.01,2013-09-20 04:27:00,
2013-09-19 22:32:00,44.8,22.0,29.99,SSE,167,0.0,0.0,40,0.00,,---,0.00,VWS V14.01,2013-09-20 04:32:00,
2013-09-19 22:37:00,44.4,22.2,30.02,SSE,167,0.0,0.0,41,0.00,,---,0.00,VWS V14.01,2013-09-20 04:37:00,
2013-09-19 22:42:00,44.2,22.0,30.02,South,174,2.7,3.6,41,0.00,,---,0.00,VWS V14.01,2013-09-20 04:42:00,
2013-09-19 22:47:00,43.7,21.6,30.02,South,180,2.7,3.1,41,0.00,,---,0.00,VWS V14.01,2013-09-20 04:47:00,
2013-09-19 22:52:00,43.3,21.2,30.02,South,191,0.0,3.1,41,0.00,,---,0.00,VWS V14.01,2013-09-20 04:52:00,
2013-09-19 22:57:00,43.0,20.9,30.02,South,191,0.0,3.1,41,0.00,,---,0.00,VWS V14.01,2013-09-20 04:57:00,
2013-09-19 23:02:00,42.8,21.3,30.02,South,191,0.0,0.0,42,0.00,,---,0.00,VWS V14.01,2013-09-20 05:02:00,
2013-09-19 23:07:00,42.4,21.5,30.02,South,191,0.0,0.0,43,0.00,,---,0.00,VWS V14.01,2013-09-20 05:07:00,
2013-09-19 23:12:00,42.4,21.5,30.02,South,191,0.0,0.0,43,0.00,,---,0.00,VWS V14.01,2013-09-20 05:12:00,
2013-09-19 23:17:00,42.4,22.1,30.02,South,191,0.0,0.0,44,0.00,,---,0.00,VWS V14.01,2013-09-20 05:17:00,
2013-09-19 23:22:00,42.3,21.9,30.02,South,191,0.0,0.0,44,0.00,,---,0.00,VWS V14.01,2013-09-20 05:22:00,
2013-09-19 23:27:00,41.9,21.6,30.02,South,191,0.0,0.0,44,0.00,,---,0.00,VWS V14.01,2013-09-20 05:27:00,
2013-09-19 23:32:00,41.7,22.0,30.02,South,191,0.0,0.0,45,0.00,,---,0.00,VWS V14.01,2013-09-20 05:32:00,
2013-09-19 23:37:00,41.9,22.6,30.02,South,191,0.0,0.0,46,0.00,,---,0.00,VWS V14.01,2013-09-20 05:37:00,
2013-09-19 23:42:00,41.9,23.2,30.02,South,191,0.0,0.0,47,0.00,,---,0.00,VWS V14.01,2013-09-20 05:42:00,
2013-09-19 23:47:00,41.7,22.5,30.02,South,191,0.0,0.0,46,0.00,,---,0.00,VWS V14.01,2013-09-20 05:47:00,
2013-09-19 23:52:00,41.5,22.3,30.02,South,191,0.0,0.0,46,0.00,,---,0.00,VWS V14.01,2013-09-20 05:52:00,
2013-09-19 23:57:00,41.4,22.1,30.02,South,191,0.0,0.0,46,0.00,,---,0.00,VWS V14.01,2013-09-20 05:57:00,